Time,TemperatureF,DewpointF,PressureIn,WindDirection,WindDirectionDegrees,WindSpeedMPH,WindSpeedGustMPH,Humidity,HourlyPrecipIn,Conditions,Clouds,dailyrainin,SoftwareType,DateUTC
2013-03-18 00:04:00,55.2,52.0,29.99,South,175,0.0,0.0,89,0.00,,,0.00,Wunderground v.1.15,2013-03-18 07:04:00,
2013-03-18 00:14:00,55.1,51.6,29.99,South,185,2.0,2.0,88,0.00,,,0.00,Wunderground v.1.15,2013-03-18 07:14:00,
2013-03-18 00:24:00,55.1,51.6,29.99,SE,124,0.0,0.0,88,0.00,,,0.00,Wunderground v.1.15,2013-03-18 07:24:00,
2013-03-18 00:34:00,55.0,51.8,29.98,SSE,156,0.0,0.0,89,0.00,,,0.00,Wunderground v.1.15,2013-03-18 07:34:00,
2013-03-18 00:44:00,55.1,51.9,29.98,SSE,163,0.0,0.0,89,0.00,,,0.00,Wunderground v.1.15,2013-03-18 07:44:00,
2013-03-18 00:54:00,55.0,51.8,29.99,South,186,1.0,1.0,89,0.00,,,0.00,Wunderground v.1.15,2013-03-18 07:54:00,
2013-03-18 01:04:00,54.9,51.7,29.99,SSE,164,0.0,0.0,89,0.00,,,0.00,Wunderground v.1.15,2013-03-18 08:04:00,
2013-03-18 01:14:00,54.9,51.7,29.99,South,172,1.0,1.0,89,0.00,,,0.00,Wunderground v.1.15,2013-03-18 08:14:00,
2013-03-18 01:24:00,54.9,51.7,29.99,SE,132,0.0,6.0,89,0.00,,,0.00,Wunderground v.1.15,2013-03-18 08:24:00,
2013-03-18 01:34:00,54.8,51.6,29.99,SE,132,0.0,0.0,89,0.00,,,0.00,Wunderground v.1.15,2013-03-18 08:34:00,
2013-03-18 01:44:00,54.8,51.6,29.99,SSW,212,0.0,0.0,89,0.00,,,0.00,Wunderground v.1.15,2013-03-18 08:44:00,
2013-03-18 01:54:00,54.9,51.7,29.99,South,182,0.0,3.0,89,0.00,,,0.00,Wunderground v.1.15,2013-03-18 08:54:00,
2013-03-18 02:04:00,54.8,51.6,29.99,South,179,0.0,1.0,89,0.00,,,0.00,Wunderground v.1.15,2013-03-18 09:04:00,
2013-03-18 02:14:00,54.7,51.2,29.99,SE,132,1.0,1.0,88,0.00,,,0.00,Wunderground v.1.15,2013-03-18 09:14:00,
2013-03-18 02:24:00,54.8,51.6,29.98,SSW,202,1.0,1.0,89,0.00,,,0.00,Wunderground v.1.15,2013-03-18 09:24:00,
2013-03-18 02:34:00,54.8,51.6,29.98,SSE,159,0.0,0.0,89,0.00,,,0.00,Wunderground v.1.15,2013-03-18 09:34:00,
2013-03-18 02:44:00,54.7,51.2,29.99,SSE,164,0.0,0.0,88,0.00,,,0.00,Wunderground v.1.15,2013-03-18 09:44:00,
2013-03-18 02:54:00,54.6,51.1,29.98,South,176,1.0,2.0,88,0.00,,,0.00,Wunderground v.1.15,2013-03-18 09:54:00,
2013-03-18 03:04:00,54.5,51.0,29.99,South,172,0.0,0.0,88,0.00,,,0.00,Wunderground v.1.15,2013-03-18 10:04:00,
2013-03-18 03:14:00,54.6,51.1,29.98,ESE,121,0.0,0.0,88,0.00,,,0.00,Wunderground v.1.15,2013-03-18 10:14:00,
2013-03-18 03:24:00,54.6,51.4,29.98,ESE,115,0.0,0.0,89,0.00,,,0.00,Wunderground v.1.15,2013-03-18 10:24:00,
2013-03-18 03:34:00,54.6,51.4,29.98,SSW,192,0.0,0.0,89,0.00,,,0.00,Wunderground v.1.15,2013-03-18 10:34:00,
2013-03-18 03:44:00,54.7,51.5,29.98,South,173,0.0,0.0,89,0.00,,,0.00,Wunderground v.1.15,2013-03-18 10:44:00,
2013-03-18 03:54:00,54.8,51.3,29.98,SSE,168,0.0,0.0,88,0.00,,,0.00,Wunderground v.1.15,2013-03-18 10:54:00,
2013-03-18 04:04:00,54.8,51.3,29.99,SSE,168,0.0,0.0,88,0.00,,,0.00,Wunderground v.1.15,2013-03-18 11:04:00,
2013-03-18 04:14:00,54.9,51.4,29.99,SE,133,0.0,0.0,88,0.00,,,0.00,Wunderground v.1.15,2013-03-18 11:14:00,
2013-03-18 04:24:00,54.9,51.4,29.98,SE,142,0.0,1.0,88,0.00,,,0.00,Wunderground v.1.15,2013-03-18 11:24:00,
2013-03-18 04:34:00,54.9,51.4,29.98,SSE,154,1.0,1.0,88,0.00,,,0.00,Wunderground v.1.15,2013-03-18 11:34:00,
2013-03-18 04:44:00,54.9,51.4,29.98,ESE,116,0.0,0.0,88,0.00,,,0.00,Wunderground v.1.15,2013-03-18 11:44:00,
2013-03-18 04:54:00,54.8,51.3,29.97,SSE,149,0.0,0.0,88,0.00,,,0.00,Wunderground v.1.15,2013-03-18 11:54:00,
2013-03-18 05:04:00,54.8,51.3,29.97,SE,142,1.0,4.0,88,0.00,,,0.00,Wunderground v.1.15,2013-03-18 12:04:00,
2013-03-18 05:14:00,54.8,51.3,29.97,SE,128,0.0,0.0,88,0.00,,,0.00,Wunderground v.1.15,2013-03-18 12:14:00,
2013-03-18 05:24:00,54.8,51.3,29.98,SE,126,1.0,1.0,88,0.00,,,0.00,Wunderground v.1.15,2013-03-18 12:24:00,
2013-03-18 05:34:00,54.8,51.3,29.98,SSE,148,0.0,0.0,88,0.00,,,0.00,Wunderground v.1.15,2013-03-18 12:34:00,
2013-03-18 05:44:00,54.8,51.0,29.98,SSE,155,0.0,0.0,87,0.00,,,0.00,Wunderground v.1.15,2013-03-18 12:44:00,
2013-03-18 05:54:00,54.9,51.1,29.99,SE,125,0.0,0.0,87,0.00,,,0.00,Wunderground v.1.15,2013-03-18 12:54:00,
2013-03-18 06:04:00,54.8,51.0,29.99,SE,140,1.0,1.0,87,0.00,,,0.00,Wunderground v.1.15,2013-03-18 13:04:00,
2013-03-18 06:14:00,54.7,50.9,29.99,SSE,151,0.0,0.0,87,0.00,,,0.00,Wunderground v.1.15,2013-03-18 13:14:00,
2013-03-18 06:24:00,54.7,50.9,30.00,SE,130,0.0,0.0,87,0.00,,,0.00,Wunderground v.1.15,2013-03-18 13:24:00,
2013-03-18 06:34:00,54.7,51.2,30.00,SSE,148,0.0,0.0,88,0.00,,,0.00,Wunderground v.1.15,2013-03-18 13:34:00,
2013-03-18 06:44:00,54.7,51.2,30.00,SSW,192,0.0,0.0,88,0.00,,,0.00,Wunderground v.1.15,2013-03-18 13:44:00,
2013-03-18 06:54:00,54.7,50.9,30.00,South,172,1.0,2.0,87,0.00,,,0.00,Wunderground v.1.15,2013-03-18 13:54:00,
2013-03-18 07:04:00,54.7,50.9,30.00,South,177,0.0,0.0,87,0.00,,,0.00,Wunderground v.1.15,2013-03-18 14:04:00,
2013-03-18 07:14:00,54.8,51.0,30.01,SSW,199,0.0,0.0,87,0.00,,,0.00,Wunderground v.1.15,2013-03-18 14:14:00,
2013-03-18 07:24:00,54.9,51.1,30.02,South,190,0.0,0.0,87,0.00,,,0.00,Wunderground v.1.15,2013-03-18 14:24:00,
2013-03-18 07:34:00,54.9,50.8,30.01,South,172,0.0,0.0,86,0.00,,,0.00,Wunderground v.1.15,2013-03-18 14:34:00,
2013-03-18 07:44:00,55.0,50.6,30.02,SSW,201,0.0,0.0,85,0.00,,,0.00,Wunderground v.1.15,2013-03-18 14:44:00,
2013-03-18 07:54:00,55.0,50.3,30.02,SSE,162,0.0,0.0,84,0.00,,,0.00,Wunderground v.1.15,2013-03-18 14:54:00,
2013-03-18 08:04:00,55.1,50.4,30.02,SSW,194,1.0,1.0,84,0.00,,,0.00,Wunderground v.1.15,2013-03-18 15:04:00,
2013-03-18 08:14:00,55.2,50.1,30.03,South,171,1.0,1.0,83,0.00,,,0.00,Wunderground v.1.15,2013-03-18 15:14:00,
2013-03-18 08:24:00,55.3,50.2,30.03,SE,142,1.0,1.0,83,0.00,,,0.00,Wunderground v.1.15,2013-03-18 15:24:00,
2013-03-18 08:34:00,55.5,50.4,30.03,SSE,162,0.0,0.0,83,0.00,,,0.00,Wunderground v.1.15,2013-03-18 15:34:00,
2013-03-18 08:44:00,55.7,50.6,30.04,SSE,165,1.0,1.0,83,0.00,,,0.00,Wunderground v.1.15,2013-03-18 15:44:00,
2013-03-18 08:54:00,55.8,50.7,30.04,SE,126,1.0,2.0,83,0.00,,,0.00,Wunderground v.1.15,2013-03-18 15:54:00,
2013-03-18 09:04:00,56.0,50.3,30.04,South,182,0.0,0.0,81,0.00,,,0.00,Wunderground v.1.15,2013-03-18 16:04:00,
2013-03-18 09:14:00,56.2,50.4,30.04,SSW,195,0.0,4.0,81,0.00,,,0.00,Wunderground v.1.15,2013-03-18 16:14:00,
2013-03-18 09:24:00,56.2,50.4,30.03,SE,142,0.0,0.0,81,0.00,,,0.00,Wunderground v.1.15,2013-03-18 16:24:00,
2013-03-18 09:34:00,56.2,50.8,30.03,South,170,0.0,0.0,82,0.00,,,0.00,Wunderground v.1.15,2013-03-18 16:34:00,
2013-03-18 09:44:00,56.3,51.2,30.04,SSW,194,0.0,0.0,83,0.00,,,0.00,Wunderground v.1.15,2013-03-18 16:44:00,
2013-03-18 09:54:00,56.1,50.7,30.04,SW,223,1.0,1.0,82,0.00,,,0.00,Wunderground v.1.15,2013-03-18 16:54:00,
2013-03-18 10:04:00,56.5,51.1,30.05,SSE,167,0.0,2.0,82,0.00,,,0.00,Wunderground v.1.15,2013-03-18 17:04:00,
2013-03-18 10:14:00,56.6,50.8,30.05,South,184,0.0,0.0,81,0.00,,,0.00,Wunderground v.1.15,2013-03-18 17:14:00,
2013-03-18 10:24:00,56.7,50.9,30.05,SSW,193,0.0,0.0,81,0.00,,,0.00,Wunderground v.1.15,2013-03-18 17:24:00,
2013-03-18 10:34:00,56.8,51.0,30.06,SSW,197,1.0,2.0,81,0.00,,,0.00,Wunderground v.1.15,2013-03-18 17:34:00,
2013-03-18 10:44:00,56.8,50.4,30.07,SSW,208,1.0,2.0,79,0.00,,,0.00,Wunderground v.1.15,2013-03-18 17:44:00,
2013-03-18 10:54:00,57.1,51.0,30.07,SSW,207,1.0,2.0,80,0.00,,,0.00,Wunderground v.1.15,2013-03-18 17:54:00,
2013-03-18 11:04:00,57.2,51.1,30.07,South,171,0.0,0.0,80,0.00,,,0.00,Wunderground v.1.15,2013-03-18 18:04:00,
2013-03-18 11:14:00,57.4,50.9,30.06,SSE,148,0.0,0.0,79,0.00,,,0.00,Wunderground v.1.15,2013-03-18 18:14:00,
2013-03-18 11:24:00,57.6,50.8,30.06,South,191,0.0,0.0,78,0.00,,,0.00,Wunderground v.1.15,2013-03-18 18:24:00,
2013-03-18 11:34:00,57.7,50.9,30.05,South,190,1.0,3.0,78,0.00,,,0.00,Wunderground v.1.15,2013-03-18 18:34:00,
2013-03-18 11:44:00,57.8,51.0,30.05,West,261,1.0,1.0,78,0.00,,,0.00,Wunderground v.1.15,2013-03-18 18:44:00,
2013-03-18 11:54:00,57.8,50.6,30.05,SSW,196,2.0,2.0,77,0.00,,,0.00,Wunderground v.1.15,2013-03-18 18:54:00,
2013-03-18 12:04:00,58.3,51.1,30.05,South,188,2.0,5.0,77,0.00,,,0.00,Wunderground v.1.15,2013-03-18 19:04:00,
2013-03-18 12:14:00,58.1,50.9,30.05,SW,226,3.0,3.0,77,0.00,,,0.00,Wunderground v.1.15,2013-03-18 19:14:00,
2013-03-18 12:24:00,58.3,50.8,30.05,SSW,205,2.0,2.0,76,0.00,,,0.00,Wunderground v.1.15,2013-03-18 19:24:00,
2013-03-18 12:34:00,58.9,51.0,30.05,South,184,2.0,5.0,75,0.00,,,0.00,Wunderground v.1.15,2013-03-18 19:34:00,
2013-03-18 12:44:00,59.5,51.9,30.05,West,269,2.0,3.0,76,0.00,,,0.00,Wunderground v.1.15,2013-03-18 19:44:00,
2013-03-18 12:54:00,59.6,51.3,30.04,SW,217,2.0,2.0,74,0.00,,,0.00,Wunderground v.1.15,2013-03-18 19:54:00,
2013-03-18 13:04:00,59.0,51.1,30.05,SW,234,3.0,4.0,75,0.00,,,0.00,Wunderground v.1.15,2013-03-18 20:04:00,
2013-03-18 13:14:00,59.1,51.2,30.05,SW,216,4.0,4.0,75,0.00,,,0.00,Wunderground v.1.15,2013-03-18 20:14:00,
2013-03-18 13:24:00,59.7,51.4,30.04,WNW,286,3.0,4.0,74,0.00,,,0.00,Wunderground v.1.15,2013-03-18 20:24:00,
2013-03-18 13:34:00,60.0,51.3,30.04,SSW,201,2.0,2.0,73,0.00,,,0.00,Wunderground v.1.15,2013-03-18 20:34:00,
2013-03-18 13:44:00,59.1,51.2,30.04,SSW,202,2.0,4.0,75,0.00,,,0.00,Wunderground v.1.15,2013-03-18 20:44:00,
2013-03-18 13:54:00,59.8,51.5,30.03,WSW,240,2.0,5.0,74,0.00,,,0.00,Wunderground v.1.15,2013-03-18 20:54:00,
2013-03-18 14:04:00,60.1,51.0,30.02,SW,229,2.0,2.0,72,0.00,,,0.00,Wunderground v.1.15,2013-03-18 21:04:00,
2013-03-18 14:14:00,60.0,50.9,30.02,SW,217,2.0,4.0,72,0.00,,,0.00,Wunderground v.1.15,2013-03-18 21:14:00,
2013-03-18 14:24:00,59.5,50.8,30.02,SW,226,3.0,4.0,73,0.00,,,0.00,Wunderground v.1.15,2013-03-18 21:24:00,
2013-03-18 14:34:00,60.2,51.1,30.02,WNW,290,2.0,6.0,72,0.00,,,0.00,Wunderground v.1.15,2013-03-18 21:34:00,
2013-03-18 14:44:00,59.0,50.7,30.02,SW,219,3.0,3.0,74,0.00,,,0.00,Wunderground v.1.15,2013-03-18 21:44:00,
2013-03-18 14:54:00,58.9,50.6,30.01,SSW,207,1.0,3.0,74,0.00,,,0.00,Wunderground v.1.15,2013-03-18 21:54:00,
2013-03-18 15:04:00,58.9,50.6,30.01,West,273,2.0,2.0,74,0.00,,,0.00,Wunderground v.1.15,2013-03-18 22:04:00,
2013-03-18 15:14:00,58.6,50.7,30.01,WSW,254,1.0,6.0,75,0.00,,,0.00,Wunderground v.1.15,2013-03-18 22:14:00,
2013-03-18 15:24:00,58.9,50.6,30.01,WNW,284,2.0,2.0,74,0.00,,,0.00,Wunderground v.1.15,2013-03-18 22:24:00,
2013-03-18 15:34:00,58.9,50.3,30.01,WNW,292,3.0,3.0,73,0.00,,,0.00,Wunderground v.1.15,2013-03-18 22:34:00,
2013-03-18 15:44:00,58.6,50.0,30.01,WNW,284,4.0,5.0,73,0.00,,,0.00,Wunderground v.1.15,2013-03-18 22:44:00,
2013-03-18 15:54:00,58.4,49.8,30.00,West,266,2.0,2.0,73,0.00,,,0.00,Wunderground v.1.15,2013-03-18 22:54:00,
2013-03-18 16:04:00,58.9,50.3,30.00,SSW,204,1.0,1.0,73,0.00,,,0.00,Wunderground v.1.15,2013-03-18 23:04:00,
2013-03-18 16:14:00,58.9,50.6,30.00,West,269,1.0,1.0,74,0.00,,,0.00,Wunderground v.1.15,2013-03-18 23:14:00,
2013-03-18 16:24:00,58.5,50.2,30.00,WSW,253,1.0,1.0,74,0.00,,,0.00,Wunderground v.1.15,2013-03-18 23:24:00,
2013-03-18 16:34:00,57.8,49.9,30.00,West,265,1.0,4.0,75,0.00,,,0.00,Wunderground v.1.15,2013-03-18 23:34:00,
2013-03-18 16:44:00,57.8,50.3,30.00,West,279,1.0,1.0,76,0.00,,,0.00,Wunderground v.1.15,2013-03-18 23:44:00,
2013-03-18 16:54:00,57.4,49.5,30.00,West,263,1.0,2.0,75,0.00,,,0.00,Wunderground v.1.15,2013-03-18 23:54:00,
2013-03-18 17:04:00,57.5,50.0,30.00,WSW,248,1.0,1.0,76,0.00,,,0.00,Wunderground v.1.15,2013-03-19 00:04:00,
2013-03-18 17:14:00,57.5,50.0,30.00,WNW,290,0.0,0.0,76,0.00,,,0.00,Wunderground v.1.15,2013-03-19 00:14:00,
2013-03-18 17:24:00,57.4,49.9,30.00,WSW,245,0.0,0.0,76,0.00,,,0.00,Wunderground v.1.15,2013-03-19 00:24:00,
2013-03-18 17:34:00,57.4,50.2,30.00,West,265,1.0,1.0,77,0.00,,,0.00,Wunderground v.1.15,2013-03-19 00:34:00,
2013-03-18 17:44:00,57.4,50.2,30.00,West,276,0.0,0.0,77,0.00,,,0.00,Wunderground v.1.15,2013-03-19 00:44:00,
2013-03-18 17:54:00,57.3,50.1,30.00,WNW,284,0.0,0.0,77,0.00,,,0.00,Wunderground v.1.15,2013-03-19 00:54:00,
2013-03-18 18:04:00,57.2,50.1,30.00,WSW,254,0.0,0.0,77,0.00,,,0.00,Wunderground v.1.15,2013-03-19 01:04:00,
2013-03-18 18:14:00,57.1,50.0,29.99,SW,229,0.0,0.0,77,0.00,,,0.00,Wunderground v.1.15,2013-03-19 01:14:00,
2013-03-18 18:24:00,57.0,50.2,29.99,SW,229,0.0,0.0,78,0.00,,,0.00,Wunderground v.1.15,2013-03-19 01:24:00,
2013-03-18 18:34:00,56.9,50.1,29.99,WSW,249,0.0,0.0,78,0.00,,,0.00,Wunderground v.1.15,2013-03-19 01:34:00,
2013-03-18 18:44:00,56.8,50.4,29.99,WSW,257,0.0,0.0,79,0.00,,,0.00,Wunderground v.1.15,2013-03-19 01:44:00,
2013-03-18 18:54:00,56.6,50.8,30.00,West,271,0.0,0.0,81,0.00,,,0.00,Wunderground v.1.15,2013-03-19 01:54:00,
2013-03-18 19:05:00,56.3,50.2,29.99,West,271,0.0,0.0,80,0.00,,,0.00,Wunderground v.1.15,2013-03-19 02:05:00,
2013-03-18 19:14:00,56.3,50.9,30.00,West,277,0.0,2.0,82,0.00,,,0.00,Wunderground v.1.15,2013-03-19 02:14:00,
2013-03-18 19:24:00,56.1,50.7,30.00,West,264,1.0,1.0,82,0.00,,,0.00,Wunderground v.1.15,2013-03-19 02:24:00,
2013-03-18 19:34:00,56.2,50.8,30.01,NW,311,1.0,1.0,82,0.00,,,0.00,Wunderground v.1.15,2013-03-19 02:34:00,
2013-03-18 19:44:00,56.2,51.1,30.02,West,259,2.0,2.0,83,0.00,,,0.00,Wunderground v.1.15,2013-03-19 02:44:00,
2013-03-18 19:54:00,56.2,51.4,30.03,WNW,293,2.0,2.0,84,0.00,,,0.00,Wunderground v.1.15,2013-03-19 02:54:00,
2013-03-18 20:04:00,56.2,51.7,30.03,NW,313,0.0,0.0,85,0.00,,,0.00,Wunderground v.1.15,2013-03-19 03:04:00,
2013-03-18 20:14:00,56.2,51.7,30.03,WNW,302,0.0,4.0,85,0.00,,,0.00,Wunderground v.1.15,2013-03-19 03:14:00,
2013-03-18 20:24:00,56.0,51.6,30.04,WNW,288,1.0,1.0,85,0.00,,,0.00,Wunderground v.1.15,2013-03-19 03:24:00,
2013-03-18 20:34:00,55.9,51.1,30.03,NW,320,0.0,0.0,84,0.00,,,0.00,Wunderground v.1.15,2013-03-19 03:34:00,
2013-03-18 20:44:00,55.8,51.0,30.03,NW,317,0.0,0.0,84,0.00,,,0.00,Wunderground v.1.15,2013-03-19 03:44:00,
2013-03-18 20:54:00,55.8,51.0,30.03,NNW,348,0.0,0.0,84,0.00,,,0.00,Wunderground v.1.15,2013-03-19 03:54:00,
2013-03-18 21:04:00,55.8,51.0,30.04,NNW,348,0.0,0.0,84,0.00,,,0.00,Wunderground v.1.15,2013-03-19 04:04:00,
2013-03-18 21:14:00,55.7,50.9,30.05,NNW,348,0.0,0.0,84,0.00,,,0.00,Wunderground v.1.15,2013-03-19 04:14:00,
2013-03-18 21:24:00,55.5,51.1,30.06,WNW,284,0.0,0.0,85,0.00,,,0.00,Wunderground v.1.15,2013-03-19 04:24:00,
2013-03-18 21:34:00,55.4,51.0,30.05,WNW,296,0.0,0.0,85,0.00,,,0.00,Wunderground v.1.15,2013-03-19 04:34:00,
2013-03-18 21:44:00,55.3,51.5,30.06,NW,315,0.0,0.0,87,0.00,,,0.00,Wunderground v.1.15,2013-03-19 04:44:00,
2013-03-18 21:54:00,55.1,51.6,30.06,WNW,284,0.0,0.0,88,0.00,,,0.00,Wunderground v.1.15,2013-03-19 04:54:00,
2013-03-18 22:04:00,54.9,51.7,30.07,NW,304,1.0,1.0,89,0.00,,,0.00,Wunderground v.1.15,2013-03-19 05:04:00,
2013-03-18 22:14:00,54.8,51.6,30.07,West,281,1.0,4.0,89,0.00,,,0.00,Wunderground v.1.15,2013-03-19 05:14:00,
2013-03-18 22:24:00,54.7,52.4,30.08,WNW,298,1.0,1.0,92,0.00,,,0.00,Wunderground v.1.15,2013-03-19 05:24:00,
2013-03-18 22:34:00,54.6,51.4,30.07,West,280,0.0,0.0,89,0.00,,,0.00,Wunderground v.1.15,2013-03-19 05:34:00,
2013-03-18 22:44:00,54.4,51.5,30.07,NNW,333,0.0,0.0,90,0.00,,,0.00,Wunderground v.1.15,2013-03-19 05:44:00,
2013-03-18 22:54:00,54.2,51.3,30.07,NNW,333,0.0,0.0,90,0.00,,,0.00,Wunderground v.1.15,2013-03-19 05:54:00,
2013-03-18 23:04:00,54.0,51.1,30.07,NNW,333,0.0,0.0,90,0.00,,,0.00,Wunderground v.1.15,2013-03-19 06:04:00,
2013-03-18 23:14:00,53.7,50.8,30.07,NNW,333,0.0,0.0,90,0.00,,,0.00,Wunderground v.1.15,2013-03-19 06:14:00,
2013-03-18 23:24:00,53.5,50.9,30.06,NNE,14,0.0,0.0,91,0.00,,,0.00,Wunderground v.1.15,2013-03-19 06:24:00,
2013-03-18 23:34:00,53.3,50.7,30.06,NNE,14,0.0,0.0,91,0.00,,,0.00,Wunderground v.1.15,2013-03-19 06:34:00,
2013-03-18 23:44:00,53.1,50.2,30.06,NNE,27,0.0,0.0,90,0.00,,,0.00,Wunderground v.1.15,2013-03-19 06:44:00,
2013-03-18 23:54:00,52.9,50.0,30.05,ENE,68,0.0,0.0,90,0.00,,,0.00,Wunderground v.1.15,2013-03-19 06:54:00,